Flag for Canada Weather past 2 weeks in Montreal, Quebec, Canada

32 °F


Feels Like: 24 °F
Forecast: 29 / 34 °F
Wind: 10 mph from Northeast

Location: Montreal - Pierre Elliot Trudeau International Aiport

Current Time: Nov 28, 2015 at 5:21:56 AM

Latest Report: Nov 28, 2015 at 5:00 AM

Visibility: 15 mi

Pressure: 30.33 "Hg

Humidity: 69%

Dew point: 23 °F

Location of MontrealLocation

Historic Weather in Montreal — Graph


Montreal temperature yesterday

Maximum temperature yesterday: 57 °F (at 12:00 PM)
Minimum temperature yesterday: 34 °F (at 9:46 PM)
Average temperature yesterday: 48 °F

Past Weeks' High & Low Weather Summary

High57 °F (Nov 27, 12:00 PM)100% (Nov 19, 10:00 PM)30.75 "Hg (Nov 19, 10:00 PM)
Low18 °F (Nov 25, 6:00 AM)32% (Nov 23, 4:00 PM)29.23 "Hg (Nov 13, 4:00 AM)
Average38 °F71%30.18 "Hg
* Reported Nov 13 4:00 AM — Nov 28 4:00 AM, Montreal, Weather by CustomWeather, © 2015

Note: Actual official high and low records may vary slightly from our data, if they occured in-between our weather recording intervals... More about our weather records


Montreal weather history for previous 24 hours

Time TempWeatherWind HumidityBarometerVisibility
4:00 AM
Sat, Nov 28
32 °FOvercast.10 mph75%30.33 "Hg15 mi
3:00 AM32 °FPassing clouds.9 mph80%30.31 "Hg15 mi
2:00 AM34 °FPassing clouds.8 mph81%30.30 "Hg15 mi
1:00 AM34 °FLow clouds.8 mph81%30.29 "Hg15 mi
12:00 AM34 °FLow clouds.6 mph93%30.28 "Hg15 mi
11:00 PM
Fri, Nov 27
34 °FPassing clouds.7 mph87%30.27 "Hg15 mi
10:00 PM34 °FLight snow. Low clouds.15 mph93%30.26 "Hg4 mi
9:46 PM34 °FSnow flurries. Mostly cloudy.14 mph93%30.24 "Hg2 mi
9:00 PM37 °FLight rain. Overcast.12 mph87%30.21 "Hg10 mi
8:00 PM39 °FLight rain. Mostly cloudy.12 mph93%30.17 "Hg10 mi
7:00 PM43 °FLight rain. Mostly cloudy.22 mph93%30.13 "Hg10 mi
6:00 PM52 °FLight rain. Mostly cloudy.13 mph94%30.08 "Hg10 mi
5:47 PM52 °FLight rain. Mostly cloudy.13 mph94%30.07 "Hg7 mi
5:00 PM52 °FLight rain. Mostly cloudy.15 mph94%30.06 "Hg7 mi
4:00 PM52 °FLight rain. Fog.17 mph94%30.06 "Hg3 mi
3:00 PM54 °FLight rain. Overcast.8 mph82%30.07 "Hg10 mi
2:00 PM57 °FSprinkles. Overcast.13 mph67%30.07 "Hg15 mi
1:00 PM57 °FSprinkles. Overcast.18 mph63%30.07 "Hg15 mi
12:00 PM57 °FSprinkles. Overcast.18 mph63%30.09 "Hg15 mi
11:00 AM55 °FOvercast.14 mph67%30.13 "Hg15 mi
10:00 AM50 °FLight rain. Overcast.6 mph88%30.17 "Hg8 mi
9:00 AM52 °FLight rain. Overcast.12 mph82%30.18 "Hg10 mi
8:00 AM48 °FLight rain. Overcast.10 mph87%30.19 "Hg15 mi
7:00 AM48 °FOvercast.3 mph82%30.20 "Hg30 mi
6:00 AM48 °FLight rain. Overcast.10 mph82%30.21 "Hg15 mi
5:00 AM48 °FSprinkles. Mostly cloudy.13 mph76%30.22 "Hg15 mi
Weather by CustomWeather, © 2015

See weather overviewHow to use our weather pages